Location: Unspecified
(0.0000°N, 0.0000°E)
Time: 11:24:56
(UTC+00:00)

ISS - Pass Details

Date: 09 April 2024
Orbit: 412 x 418 km, 51.6° (Epoch: 20 April)

Event Time Altitude Azimuth Distance (km) Brightness Sun altitude
Rises 18:59:31 0° 302° (WNW) 2,349 1.3 -14.4°
Reaches altitude 10° 19:01:57 10° 285° (WNW) 1,491 0.4 -15.0°
Maximum altitude 19:04:32 21° 234° (SW) 1,005 -1.3 -15.6°
Drops below altitude 10° 19:07:09 10° 183° (S) 1,498 -1.0 -16.3°
Enters shadow 19:08:24 - 172° (S) 1,920 -0.6 -16.6°
